Location: Москва
(55.7504°N, 37.6175°E)
Time: 03:44:27
(UTC+03:00)

Envisat - Pass Details

Date: 25 September 2021
Orbit: 764 x 766 km, 98.2° (Epoch: 17 October)

Event Time Altitude Azimuth Distance (km) Brightness Sun altitude
Rises 05:13:37 0° 19° (NNE) 3,247 6.7 -10.2°
Reaches altitude 10° 05:16:04 10° 26° (NNE) 2,315 6.1 -9.8°
Maximum altitude 05:20:53 41° 97° (E) 1,113 4.5 -9.2°
Drops below altitude 10° 05:25:39 10° 167° (SSE) 2,299 5.5 -8.5°
Sets 05:28:05 0° 174° (S) 3,220 6.2 -8.2°
